Location: Albuquerque Trailhead
(34.7934°N, 106.3736°W)
Time: 00:34:26
(UTC+00:00)

BREEZE-M R/B - Pass Details

Date: 20 June 2021
Orbit: 579 x 26589 km, 48.9° (Epoch: 31 July)

Event Time Altitude Azimuth Distance (km) Brightness Sun altitude
Exits shadow 09:04:10 33° 317° (NW) 977 3.6 -25.5°
Maximum altitude 09:04:35 35° 333° (NNW) 963 3.7 -25.4°
Drops below altitude 10° 09:08:35 10° 42° (NE) 2,417 6.6 -25.0°
Sets 09:12:10 0° 52° (NE) 4,202 7.9 -24.7°
